Time,TemperatureF,DewpointF,PressureIn,WindDirection,WindDirectionDegrees,WindSpeedMPH,WindSpeedGustMPH,Humidity,HourlyPrecipIn,Conditions,Clouds,dailyrainin,SoftwareType,DateUTC
2013-04-08 00:01:00,61.0,51.5,29.92,SSW,207,0.0,0.0,71,0.00,,,0.00,Wunderground v.1.15,2013-04-08 05:01:00,
2013-04-08 00:07:00,60.7,51.2,29.92,SSW,210,0.0,0.0,71,0.00,,,0.00,Wunderground v.1.15,2013-04-08 05:07:00,
2013-04-08 00:12:00,60.5,51.0,29.92,SSW,210,0.0,0.0,71,0.00,,,0.00,Wunderground v.1.15,2013-04-08 05:12:00,
2013-04-08 00:17:00,60.4,51.0,29.92,SSW,210,0.0,0.0,71,0.00,,,0.00,Wunderground v.1.15,2013-04-08 05:17:00,
2013-04-08 00:23:00,60.3,51.2,29.92,SSW,212,0.0,1.0,72,0.00,,,0.00,Wunderground v.1.15,2013-04-08 05:23:00,
2013-04-08 00:28:00,60.3,50.9,29.92,SSW,208,1.0,1.0,71,0.00,,,0.00,Wunderground v.1.15,2013-04-08 05:28:00,
2013-04-08 00:34:00,60.4,51.0,29.92,SW,231,1.0,2.0,71,0.00,,,0.00,Wunderground v.1.15,2013-04-08 05:34:00,
2013-04-08 00:40:00,60.5,50.7,29.92,SSW,205,0.0,1.0,70,0.00,,,0.00,Wunderground v.1.15,2013-04-08 05:40:00,
2013-04-08 00:45:00,60.7,50.9,29.92,SSW,194,1.0,2.0,70,0.00,,,0.00,Wunderground v.1.15,2013-04-08 05:45:00,
2013-04-08 00:51:00,60.9,51.0,29.92,South,183,1.0,1.0,70,0.00,,,0.00,Wunderground v.1.15,2013-04-08 05:51:00,
2013-04-08 00:56:00,61.0,50.8,29.92,SW,218,2.0,2.0,69,0.00,,,0.00,Wunderground v.1.15,2013-04-08 05:56:00,
2013-04-08 01:01:00,61.1,50.8,29.92,SSW,211,1.0,2.0,69,0.00,,,0.00,Wunderground v.1.15,2013-04-08 06:01:00,
2013-04-08 01:07:00,61.2,50.9,29.92,SW,221,2.0,3.0,69,0.00,,,0.00,Wunderground v.1.15,2013-04-08 06:07:00,
2013-04-08 01:11:00,61.2,50.9,29.92,South,191,2.0,2.0,69,0.00,,,0.00,Wunderground v.1.15,2013-04-08 06:11:00,
2013-04-08 01:17:00,61.3,51.0,29.92,SW,220,1.0,2.0,69,0.00,,,0.00,Wunderground v.1.15,2013-04-08 06:17:00,
2013-04-08 01:22:00,61.3,51.0,29.92,SW,217,1.0,2.0,69,0.00,,,0.00,Wunderground v.1.15,2013-04-08 06:22:00,
2013-04-08 01:28:00,61.3,51.0,29.92,SW,236,2.0,2.0,69,0.00,,,0.00,Wunderground v.1.15,2013-04-08 06:28:00,
2013-04-08 01:35:00,61.3,51.0,29.92,SSW,210,1.0,2.0,69,0.00,,,0.00,Wunderground v.1.15,2013-04-08 06:35:00,
2013-04-08 01:40:00,61.4,50.7,29.92,SW,220,2.0,2.0,68,0.00,,,0.00,Wunderground v.1.15,2013-04-08 06:40:00,
2013-04-08 01:46:00,61.5,50.8,29.92,SW,215,1.0,4.0,68,0.00,,,0.00,Wunderground v.1.15,2013-04-08 06:46:00,
2013-04-08 01:51:00,61.6,50.9,29.92,SSW,198,1.0,2.0,68,0.00,,,0.00,Wunderground v.1.15,2013-04-08 06:51:00,
2013-04-08 01:57:00,61.6,50.9,29.91,SSW,194,2.0,3.0,68,0.00,,,0.00,Wunderground v.1.15,2013-04-08 06:57:00,
2013-04-08 02:02:00,61.8,51.1,29.91,SSE,160,0.0,3.0,68,0.00,,,0.00,Wunderground v.1.15,2013-04-08 07:02:00,
2013-04-08 02:07:00,62.1,51.0,29.91,SSE,162,2.0,7.0,67,0.00,,,0.00,Wunderground v.1.15,2013-04-08 07:07:00,
2013-04-08 02:12:00,62.2,51.1,29.91,SSW,204,2.0,4.0,67,0.00,,,0.00,Wunderground v.1.15,2013-04-08 07:12:00,
2013-04-08 02:17:00,62.2,51.1,29.91,SSW,207,3.0,4.0,67,0.00,,,0.00,Wunderground v.1.15,2013-04-08 07:17:00,
2013-04-08 02:22:00,62.2,51.1,29.91,WSW,239,3.0,5.0,67,0.00,,,0.00,Wunderground v.1.15,2013-04-08 07:22:00,
2013-04-08 02:27:00,62.2,51.1,29.90,South,179,2.0,5.0,67,0.00,,,0.00,Wunderground v.1.15,2013-04-08 07:27:00,
2013-04-08 02:32:00,62.4,51.3,29.90,SSW,207,2.0,10.0,67,0.00,,,0.00,Wunderground v.1.15,2013-04-08 07:32:00,
2013-04-08 02:37:00,62.5,51.0,29.90,South,183,3.0,10.0,66,0.00,,,0.00,Wunderground v.1.15,2013-04-08 07:37:00,
2013-04-08 02:42:00,62.6,51.1,29.90,SSW,200,3.0,4.0,66,0.00,,,0.00,Wunderground v.1.15,2013-04-08 07:42:00,
2013-04-08 02:47:00,62.5,51.0,29.90,SW,219,4.0,5.0,66,0.00,,,0.00,Wunderground v.1.15,2013-04-08 07:47:00,
2013-04-08 02:52:00,62.6,51.1,29.89,SW,228,2.0,6.0,66,0.00,,,0.00,Wunderground v.1.15,2013-04-08 07:52:00,
2013-04-08 02:57:00,62.6,51.1,29.89,SW,229,3.0,6.0,66,0.00,,,0.00,Wunderground v.1.15,2013-04-08 07:57:00,
2013-04-08 03:02:00,62.4,50.9,29.89,South,187,4.0,6.0,66,0.00,,,0.00,Wunderground v.1.15,2013-04-08 08:02:00,
2013-04-08 03:07:00,62.3,51.2,29.88,SW,222,2.0,6.0,67,0.00,,,0.00,Wunderground v.1.15,2013-04-08 08:07:00,
2013-04-08 03:12:00,62.4,51.3,29.88,SW,224,7.0,7.0,67,0.00,,,0.00,Wunderground v.1.15,2013-04-08 08:12:00,
2013-04-08 03:17:00,62.4,51.3,29.88,SW,215,4.0,7.0,67,0.00,,,0.00,Wunderground v.1.15,2013-04-08 08:17:00,
2013-04-08 03:22:00,62.5,51.0,29.88,South,181,3.0,6.0,66,0.00,,,0.00,Wunderground v.1.15,2013-04-08 08:22:00,
2013-04-08 03:27:00,62.4,51.3,29.88,South,186,1.0,6.0,67,0.00,,,0.00,Wunderground v.1.15,2013-04-08 08:27:00,
2013-04-08 03:32:00,62.4,51.3,29.88,SW,217,2.0,7.0,67,0.00,,,0.00,Wunderground v.1.15,2013-04-08 08:32:00,
2013-04-08 03:38:00,62.4,51.3,29.88,SW,225,2.0,7.0,67,0.00,,,0.00,Wunderground v.1.15,2013-04-08 08:38:00,
2013-04-08 03:43:00,62.3,51.2,29.87,SSE,150,5.0,10.0,67,0.00,,,0.00,Wunderground v.1.15,2013-04-08 08:43:00,
2013-04-08 03:48:00,62.6,51.1,29.87,South,173,3.0,14.0,66,0.00,,,0.00,Wunderground v.1.15,2013-04-08 08:48:00,
2013-04-08 03:53:00,62.7,51.2,29.87,SSW,194,3.0,10.0,66,0.00,,,0.00,Wunderground v.1.15,2013-04-08 08:53:00,
2013-04-08 03:58:00,62.9,51.4,29.87,SSW,193,8.0,10.0,66,0.00,,,0.00,Wunderground v.1.15,2013-04-08 08:58:00,
2013-04-08 04:03:00,62.9,51.4,29.86,South,176,4.0,9.0,66,0.00,,,0.00,Wunderground v.1.15,2013-04-08 09:03:00,
2013-04-08 04:08:00,62.8,51.3,29.86,SW,217,11.0,11.0,66,0.00,,,0.00,Wunderground v.1.15,2013-04-08 09:08:00,
2013-04-08 04:13:00,62.6,51.1,29.86,SSW,208,2.0,8.0,66,0.00,,,0.00,Wunderground v.1.15,2013-04-08 09:13:00,
2013-04-08 04:18:00,62.5,51.4,29.86,SSW,193,5.0,8.0,67,0.00,,,0.00,Wunderground v.1.15,2013-04-08 09:18:00,
2013-04-08 04:23:00,62.5,51.4,29.86,South,174,2.0,6.0,67,0.00,,,0.00,Wunderground v.1.15,2013-04-08 09:23:00,
2013-04-08 04:28:00,62.6,51.5,29.86,WSW,239,3.0,6.0,67,0.00,,,0.00,Wunderground v.1.15,2013-04-08 09:28:00,
2013-04-08 04:33:00,62.8,51.7,29.86,West,261,6.0,7.0,67,0.00,,,0.00,Wunderground v.1.15,2013-04-08 09:33:00,
2013-04-08 04:38:00,63.1,51.6,29.86,SSW,195,3.0,11.0,66,0.00,,,0.00,Wunderground v.1.15,2013-04-08 09:38:00,
2013-04-08 04:43:00,63.4,51.8,29.86,South,180,4.0,9.0,66,0.00,,,0.00,Wunderground v.1.15,2013-04-08 09:43:00,
2013-04-08 04:48:00,63.4,51.8,29.86,SW,228,4.0,11.0,66,0.00,,,0.00,Wunderground v.1.15,2013-04-08 09:48:00,
2013-04-08 04:53:00,63.6,52.0,29.87,SW,231,4.0,9.0,66,0.00,,,0.00,Wunderground v.1.15,2013-04-08 09:53:00,
2013-04-08 04:58:00,63.7,51.7,29.87,West,267,6.0,10.0,65,0.00,,,0.00,Wunderground v.1.15,2013-04-08 09:58:00,
2013-04-08 05:03:00,63.7,52.1,29.86,SW,219,8.0,10.0,66,0.00,,,0.00,Wunderground v.1.15,2013-04-08 10:03:00,
2013-04-08 05:08:00,63.7,52.1,29.86,WNW,288,5.0,12.0,66,0.00,,,0.00,Wunderground v.1.15,2013-04-08 10:08:00,
2013-04-08 05:13:00,63.7,52.1,29.87,SSW,211,2.0,8.0,66,0.00,,,0.00,Wunderground v.1.15,2013-04-08 10:13:00,
2013-04-08 05:18:00,63.8,52.2,29.87,SW,224,4.0,9.0,66,0.00,,,0.00,Wunderground v.1.15,2013-04-08 10:18:00,
2013-04-08 05:23:00,63.9,52.3,29.87,SW,229,4.0,9.0,66,0.00,,,0.00,Wunderground v.1.15,2013-04-08 10:23:00,
2013-04-08 05:29:00,63.9,52.3,29.86,SSW,208,5.0,9.0,66,0.00,,,0.00,Wunderground v.1.15,2013-04-08 10:29:00,
2013-04-08 05:34:00,64.0,52.4,29.87,WSW,245,3.0,12.0,66,0.00,,,0.00,Wunderground v.1.15,2013-04-08 10:34:00,
2013-04-08 05:39:00,64.1,52.5,29.87,SSW,194,3.0,12.0,66,0.00,,,0.00,Wunderground v.1.15,2013-04-08 10:39:00,
2013-04-08 05:44:00,64.1,52.5,29.88,WSW,246,4.0,12.0,66,0.00,,,0.00,Wunderground v.1.15,2013-04-08 10:44:00,
2013-04-08 05:49:00,64.0,52.8,29.88,SSE,155,5.0,12.0,67,0.00,,,0.00,Wunderground v.1.15,2013-04-08 10:49:00,
2013-04-08 05:54:00,64.0,52.8,29.88,SSW,212,2.0,12.0,67,0.00,,,0.00,Wunderground v.1.15,2013-04-08 10:54:00,
2013-04-08 05:59:00,63.9,52.7,29.88,WSW,237,5.0,12.0,67,0.00,,,0.00,Wunderground v.1.15,2013-04-08 10:59:00,
2013-04-08 06:04:00,64.0,52.8,29.88,SW,222,3.0,12.0,67,0.00,,,0.00,Wunderground v.1.15,2013-04-08 11:04:00,
2013-04-08 06:09:00,63.9,52.7,29.88,SW,226,2.0,12.0,67,0.00,,,0.00,Wunderground v.1.15,2013-04-08 11:09:00,
2013-04-08 06:14:00,63.9,53.1,29.88,SW,233,5.0,9.0,68,0.00,,,0.00,Wunderground v.1.15,2013-04-08 11:14:00,
2013-04-08 06:19:00,63.9,53.1,29.89,SSW,204,5.0,9.0,68,0.00,,,0.00,Wunderground v.1.15,2013-04-08 11:19:00,
2013-04-08 06:24:00,64.0,53.2,29.89,SW,236,5.0,13.0,68,0.00,,,0.00,Wunderground v.1.15,2013-04-08 11:24:00,
2013-04-08 06:29:00,63.9,53.5,29.90,WSW,238,5.0,13.0,69,0.00,,,0.00,Wunderground v.1.15,2013-04-08 11:29:00,
2013-04-08 06:34:00,63.9,53.5,29.90,WSW,243,7.0,11.0,69,0.00,,,0.00,Wunderground v.1.15,2013-04-08 11:34:00,
2013-04-08 06:39:00,63.9,53.5,29.90,SSW,203,5.0,11.0,69,0.00,,,0.00,Wunderground v.1.15,2013-04-08 11:39:00,
2013-04-08 06:44:00,63.9,53.9,29.90,WSW,256,2.0,10.0,70,0.00,,,0.00,Wunderground v.1.15,2013-04-08 11:44:00,
2013-04-08 06:50:00,63.9,53.9,29.91,WSW,241,4.0,4.0,70,0.00,,,0.00,Wunderground v.1.15,2013-04-08 11:50:00,
2013-04-08 06:55:00,63.9,53.9,29.90,West,259,5.0,8.0,70,0.00,,,0.00,Wunderground v.1.15,2013-04-08 11:55:00,
2013-04-08 07:00:00,63.9,54.3,29.91,SE,139,2.0,4.0,71,0.00,,,0.00,Wunderground v.1.15,2013-04-08 12:00:00,
2013-04-08 07:05:00,63.9,54.3,29.91,WSW,239,3.0,9.0,71,0.00,,,0.00,Wunderground v.1.15,2013-04-08 12:05:00,
2013-04-08 07:10:00,64.0,54.4,29.91,WSW,247,6.0,6.0,71,0.00,,,0.00,Wunderground v.1.15,2013-04-08 12:10:00,
2013-04-08 07:15:00,64.1,54.9,29.91,SW,217,3.0,8.0,72,0.00,,,0.00,Wunderground v.1.15,2013-04-08 12:15:00,
2013-04-08 07:20:00,64.3,55.1,29.91,WNW,298,3.0,5.0,72,0.00,,,0.00,Wunderground v.1.15,2013-04-08 12:20:00,
2013-04-08 07:25:00,64.4,55.2,29.92,SW,226,1.0,10.0,72,0.00,,,0.00,Wunderground v.1.15,2013-04-08 12:25:00,
2013-04-08 07:30:00,64.4,55.2,29.92,West,279,4.0,6.0,72,0.00,,,0.00,Wunderground v.1.15,2013-04-08 12:30:00,
2013-04-08 07:35:00,64.6,55.4,29.91,WSW,249,4.0,10.0,72,0.00,,,0.00,Wunderground v.1.15,2013-04-08 12:35:00,
2013-04-08 07:40:00,64.7,55.5,29.92,WSW,253,9.0,13.0,72,0.00,,,0.00,Wunderground v.1.15,2013-04-08 12:40:00,
2013-04-08 07:45:00,64.7,55.5,29.92,SSW,211,2.0,13.0,72,0.00,,,0.00,Wunderground v.1.15,2013-04-08 12:45:00,
2013-04-08 07:50:00,64.7,55.5,29.91,WSW,249,10.0,10.0,72,0.00,,,0.00,Wunderground v.1.15,2013-04-08 12:50:00,
2013-04-08 07:56:00,64.8,55.6,29.91,South,174,3.0,13.0,72,0.00,,,0.00,Wunderground v.1.15,2013-04-08 12:56:00,
2013-04-08 08:01:00,64.9,55.7,29.91,WSW,238,3.0,11.0,72,0.00,,,0.00,Wunderground v.1.15,2013-04-08 13:01:00,
2013-04-08 08:06:00,65.0,55.8,29.91,WSW,246,7.0,14.0,72,0.00,,,0.00,Wunderground v.1.15,2013-04-08 13:06:00,
2013-04-08 08:11:00,65.1,55.8,29.92,WSW,237,4.0,6.0,72,0.00,,,0.00,Wunderground v.1.15,2013-04-08 13:11:00,
2013-04-08 08:16:00,65.2,55.9,29.91,West,260,4.0,11.0,72,0.00,,,0.00,Wunderground v.1.15,2013-04-08 13:16:00,
2013-04-08 08:21:00,65.3,56.0,29.91,WSW,240,4.0,9.0,72,0.00,,,0.00,Wunderground v.1.15,2013-04-08 13:21:00,
2013-04-08 08:26:00,65.3,56.0,29.92,SW,218,7.0,12.0,72,0.00,,,0.00,Wunderground v.1.15,2013-04-08 13:26:00,
2013-04-08 08:31:00,65.2,55.9,29.92,WNW,285,4.0,6.0,72,0.00,,,0.00,Wunderground v.1.15,2013-04-08 13:31:00,
2013-04-08 08:36:00,65.2,56.3,29.92,WSW,246,7.0,10.0,73,0.00,,,0.00,Wunderground v.1.15,2013-04-08 13:36:00,
2013-04-08 08:41:00,65.2,56.3,29.92,South,174,3.0,8.0,73,0.00,,,0.00,Wunderground v.1.15,2013-04-08 13:41:00,
2013-04-08 08:46:00,65.3,56.4,29.92,SSW,204,3.0,9.0,73,0.00,,,0.00,Wunderground v.1.15,2013-04-08 13:46:00,
2013-04-08 08:51:00,65.5,56.6,29.91,West,266,6.0,11.0,73,0.00,,,0.00,Wunderground v.1.15,2013-04-08 13:51:00,
2013-04-08 08:56:00,65.6,56.7,29.92,WSW,249,9.0,11.0,73,0.00,,,0.00,Wunderground v.1.15,2013-04-08 13:56:00,
2013-04-08 09:01:00,65.7,56.8,29.92,SSW,212,8.0,8.0,73,0.00,,,0.00,Wunderground v.1.15,2013-04-08 14:01:00,
2013-04-08 09:06:00,65.6,57.1,29.92,WNW,285,8.0,13.0,74,0.00,,,0.00,Wunderground v.1.15,2013-04-08 14:06:00,
2013-04-08 09:11:00,65.6,57.1,29.92,South,190,2.0,9.0,74,0.00,,,0.00,Wunderground v.1.15,2013-04-08 14:11:00,
2013-04-08 09:16:00,65.9,57.0,29.92,WSW,238,5.0,9.0,73,0.00,,,0.00,Wunderground v.1.15,2013-04-08 14:16:00,
2013-04-08 09:21:00,66.6,57.7,29.92,WNW,284,7.0,11.0,73,0.00,,,0.00,Wunderground v.1.15,2013-04-08 14:21:00,
2013-04-08 09:27:00,67.4,57.7,29.92,West,271,3.0,12.0,71,0.00,,,0.00,Wunderground v.1.15,2013-04-08 14:27:00,
2013-04-08 09:32:00,67.9,57.8,29.92,West,260,6.0,10.0,70,0.00,,,0.00,Wunderground v.1.15,2013-04-08 14:32:00,
2013-04-08 09:37:00,68.3,57.7,29.92,WSW,248,7.0,17.0,69,0.00,,,0.00,Wunderground v.1.15,2013-04-08 14:37:00,
2013-04-08 09:42:00,68.6,57.6,29.92,WSW,252,10.0,14.0,68,0.00,,,0.00,Wunderground v.1.15,2013-04-08 14:42:00,
2013-04-08 09:47:00,68.8,57.8,29.92,West,263,9.0,16.0,68,0.00,,,0.00,Wunderground v.1.15,2013-04-08 14:47:00,
2013-04-08 09:52:00,69.0,58.0,29.92,WSW,252,7.0,13.0,68,0.00,,,0.00,Wunderground v.1.15,2013-04-08 14:52:00,
2013-04-08 09:57:00,69.0,57.6,29.92,SW,225,10.0,20.0,67,0.00,,,0.00,Wunderground v.1.15,2013-04-08 14:57:00,
2013-04-08 10:02:00,68.9,57.5,29.92,WSW,242,8.0,10.0,67,0.00,,,0.00,Wunderground v.1.15,2013-04-08 15:02:00,
2013-04-08 10:07:00,68.7,57.7,29.92,WSW,239,12.0,15.0,68,0.00,,,0.00,Wunderground v.1.15,2013-04-08 15:07:00,
2013-04-08 10:12:00,68.3,57.7,29.92,SW,228,5.0,11.0,69,0.00,,,0.00,Wunderground v.1.15,2013-04-08 15:12:00,
2013-04-08 10:17:00,68.3,58.1,29.92,WSW,251,9.0,17.0,70,0.00,,,0.00,Wunderground v.1.15,2013-04-08 15:17:00,
2013-04-08 10:22:00,68.3,58.1,29.92,West,269,7.0,13.0,70,0.00,,,0.00,Wunderground v.1.15,2013-04-08 15:22:00,
2013-04-08 10:27:00,68.7,57.7,29.92,WSW,243,15.0,15.0,68,0.00,,,0.00,Wunderground v.1.15,2013-04-08 15:27:00,
2013-04-08 10:32:00,69.1,57.3,29.93,West,271,9.0,19.0,66,0.00,,,0.00,Wunderground v.1.15,2013-04-08 15:32:00,
2013-04-08 10:37:00,69.4,57.1,29.92,WSW,245,8.0,21.0,65,0.00,,,0.00,Wunderground v.1.15,2013-04-08 15:37:00,
2013-04-08 10:43:00,69.8,57.1,29.93,West,260,14.0,15.0,64,0.00,,,0.00,Wunderground v.1.15,2013-04-08 15:43:00,
2013-04-08 10:48:00,69.8,57.1,29.92,West,281,6.0,15.0,64,0.00,,,0.00,Wunderground v.1.15,2013-04-08 15:48:00,
2013-04-08 10:53:00,69.7,57.0,29.93,SW,231,6.0,12.0,64,0.00,,,0.00,Wunderground v.1.15,2013-04-08 15:53:00,
2013-04-08 10:58:00,69.7,57.0,29.93,WSW,252,7.0,14.0,64,0.00,,,0.00,Wunderground v.1.15,2013-04-08 15:58:00,
2013-04-08 11:03:00,69.6,56.9,29.94,SW,221,8.0,18.0,64,0.00,,,0.00,Wunderground v.1.15,2013-04-08 16:03:00,
2013-04-08 11:08:00,69.6,56.4,29.93,West,259,12.0,18.0,63,0.00,,,0.00,Wunderground v.1.15,2013-04-08 16:08:00,
2013-04-08 11:13:00,69.7,56.5,29.93,West,263,8.0,18.0,63,0.00,,,0.00,Wunderground v.1.15,2013-04-08 16:13:00,
2013-04-08 11:18:00,69.9,56.7,29.93,WSW,256,7.0,18.0,63,0.00,,,0.00,Wunderground v.1.15,2013-04-08 16:18:00,
2013-04-08 11:23:00,70.1,56.9,29.93,WSW,257,5.0,12.0,63,0.00,,,0.00,Wunderground v.1.15,2013-04-08 16:23:00,
2013-04-08 11:28:00,70.5,56.9,29.94,SSW,212,7.0,12.0,62,0.00,,,0.00,Wunderground v.1.15,2013-04-08 16:28:00,
2013-04-08 11:33:00,70.5,56.4,29.94,WSW,238,4.0,11.0,61,0.00,,,0.00,Wunderground v.1.15,2013-04-08 16:33:00,
2013-04-08 11:38:00,70.1,56.0,29.93,West,278,11.0,15.0,61,0.00,,,0.00,Wunderground v.1.15,2013-04-08 16:38:00,
2013-04-08 11:43:00,70.0,56.4,29.94,WSW,243,9.0,14.0,62,0.00,,,0.00,Wunderground v.1.15,2013-04-08 16:43:00,
2013-04-08 11:48:00,70.0,55.9,29.94,SW,224,7.0,15.0,61,0.00,,,0.00,Wunderground v.1.15,2013-04-08 16:48:00,
2013-04-08 11:53:00,70.2,56.6,29.94,SW,217,3.0,12.0,62,0.00,,,0.00,Wunderground v.1.15,2013-04-08 16:53:00,
2013-04-08 11:58:00,70.6,56.9,29.93,SSW,210,2.0,12.0,62,0.00,,,0.00,Wunderground v.1.15,2013-04-08 16:58:00,
2013-04-08 12:03:00,70.9,56.3,29.94,South,180,8.0,18.0,60,0.00,,,0.00,Wunderground v.1.15,2013-04-08 17:03:00,
2013-04-08 12:08:00,70.7,56.6,29.93,SW,221,3.0,18.0,61,0.00,,,0.00,Wunderground v.1.15,2013-04-08 17:08:00,
2013-04-08 12:13:00,70.8,56.2,29.94,WSW,239,15.0,16.0,60,0.00,,,0.00,Wunderground v.1.15,2013-04-08 17:13:00,
2013-04-08 12:18:00,70.6,55.6,29.94,WSW,242,12.0,20.0,59,0.00,,,0.00,Wunderground v.1.15,2013-04-08 17:18:00,
2013-04-08 12:23:00,70.4,55.8,29.93,SW,221,4.0,16.0,60,0.00,,,0.00,Wunderground v.1.15,2013-04-08 17:23:00,
2013-04-08 12:28:00,70.4,55.8,29.93,WSW,245,10.0,16.0,60,0.00,,,0.00,Wunderground v.1.15,2013-04-08 17:28:00,
2013-04-08 12:33:00,70.3,55.8,29.91,SW,219,6.0,14.0,60,0.00,,,0.00,Wunderground v.1.15,2013-04-08 17:33:00,
2013-04-08 12:38:00,70.6,56.0,29.90,NW,304,6.0,14.0,60,0.00,,,0.00,Wunderground v.1.15,2013-04-08 17:38:00,
2013-04-08 12:43:00,71.1,56.0,29.90,West,274,8.0,19.0,59,0.00,,,0.00,Wunderground v.1.15,2013-04-08 17:43:00,
2013-04-08 12:48:00,72.1,57.0,29.90,West,274,4.0,19.0,59,0.00,,,0.00,Wunderground v.1.15,2013-04-08 17:48:00,
2013-04-08 12:53:00,72.6,56.5,29.91,West,266,3.0,12.0,57,0.00,,,0.00,Wunderground v.1.15,2013-04-08 17:53:00,
2013-04-08 12:58:00,72.9,56.8,29.90,SW,226,5.0,14.0,57,0.00,,,0.00,Wunderground v.1.15,2013-04-08 17:58:00,
2013-04-08 13:03:00,72.8,57.2,29.90,SW,229,10.0,14.0,58,0.00,,,0.00,Wunderground v.1.15,2013-04-08 18:03:00,
2013-04-08 13:08:00,73.0,56.4,29.89,WSW,238,8.0,17.0,56,0.00,,,0.00,Wunderground v.1.15,2013-04-08 18:08:00,
2013-04-08 13:13:00,72.7,56.1,29.89,SW,236,11.0,13.0,56,0.00,,,0.00,Wunderground v.1.15,2013-04-08 18:13:00,
2013-04-08 13:18:00,72.7,56.1,29.88,SW,217,17.0,19.0,56,0.00,,,0.00,Wunderground v.1.15,2013-04-08 18:18:00,
2013-04-08 13:23:00,73.1,56.5,29.88,SW,235,21.0,22.0,56,0.00,,,0.00,Wunderground v.1.15,2013-04-08 18:23:00,
2013-04-08 13:28:00,73.3,56.2,29.88,West,267,12.0,22.0,55,0.00,,,0.00,Wunderground v.1.15,2013-04-08 18:28:00,
2013-04-08 13:33:00,73.4,56.2,29.87,South,183,8.0,25.0,55,0.00,,,0.00,Wunderground v.1.15,2013-04-08 18:33:00,
2013-04-08 13:38:00,73.7,56.0,29.87,WSW,245,8.0,25.0,54,0.00,,,0.00,Wunderground v.1.15,2013-04-08 18:38:00,
2013-04-08 13:43:00,73.8,56.6,29.87,West,278,5.0,19.0,55,0.00,,,0.00,Wunderground v.1.15,2013-04-08 18:43:00,
2013-04-08 13:48:00,74.0,56.8,29.86,SSE,162,10.0,22.0,55,0.00,,,0.00,Wunderground v.1.15,2013-04-08 18:48:00,
2013-04-08 13:53:00,74.1,56.4,29.87,SW,214,5.0,19.0,54,0.00,,,0.00,Wunderground v.1.15,2013-04-08 18:53:00,
2013-04-08 13:58:00,74.4,56.7,29.88,WSW,242,10.0,20.0,54,0.00,,,0.00,Wunderground v.1.15,2013-04-08 18:58:00,
2013-04-08 14:03:00,74.3,57.1,29.89,SW,226,10.0,14.0,55,0.00,,,0.00,Wunderground v.1.15,2013-04-08 19:03:00,
2013-04-08 14:08:00,74.3,57.1,29.89,NW,309,13.0,15.0,55,0.00,,,0.00,Wunderground v.1.15,2013-04-08 19:08:00,
2013-04-08 14:13:00,73.9,56.2,29.90,West,276,14.0,19.0,54,0.00,,,0.00,Wunderground v.1.15,2013-04-08 19:13:00,
2013-04-08 14:18:00,73.6,56.9,29.90,SW,236,4.0,19.0,56,0.00,,,0.00,Wunderground v.1.15,2013-04-08 19:18:00,
2013-04-08 14:23:00,73.6,56.4,29.90,SW,229,11.0,13.0,55,0.00,,,0.00,Wunderground v.1.15,2013-04-08 19:23:00,
2013-04-08 14:28:00,73.4,56.7,29.89,SW,231,3.0,13.0,56,0.00,,,0.00,Wunderground v.1.15,2013-04-08 19:28:00,
2013-04-08 14:33:00,73.3,56.7,29.89,SW,221,7.0,16.0,56,0.00,,,0.00,Wunderground v.1.15,2013-04-08 19:33:00,
2013-04-08 14:38:00,73.4,56.7,29.89,SSW,196,7.0,16.0,56,0.00,,,0.00,Wunderground v.1.15,2013-04-08 19:38:00,
2013-04-08 14:43:00,73.4,56.7,29.89,SSW,208,3.0,13.0,56,0.00,,,0.00,Wunderground v.1.15,2013-04-08 19:43:00,
2013-04-08 14:48:00,73.2,56.6,29.89,WNW,297,6.0,15.0,56,0.00,,,0.00,Wunderground v.1.15,2013-04-08 19:48:00,
2013-04-08 14:53:00,73.3,56.7,29.89,West,271,6.0,14.0,56,0.00,,,0.00,Wunderground v.1.15,2013-04-08 19:53:00,
2013-04-08 14:58:00,73.3,57.1,29.89,SW,228,4.0,14.0,57,0.00,,,0.00,Wunderground v.1.15,2013-04-08 19:58:00,
2013-04-08 15:03:00,73.2,57.1,29.88,SSE,160,5.0,12.0,57,0.00,,,0.00,Wunderground v.1.15,2013-04-08 20:03:00,
2013-04-08 15:08:00,73.3,57.1,29.88,West,272,9.0,12.0,57,0.00,,,0.00,Wunderground v.1.15,2013-04-08 20:08:00,
2013-04-08 15:13:00,73.4,58.2,29.88,South,180,5.0,7.0,59,0.00,,,0.00,Wunderground v.1.15,2013-04-08 20:13:00,
2013-04-08 15:18:00,73.5,57.3,29.88,WSW,243,7.0,12.0,57,0.00,,,0.00,Wunderground v.1.15,2013-04-08 20:18:00,
2013-04-08 15:23:00,73.4,56.7,29.88,SW,235,9.0,13.0,56,0.00,,,0.00,Wunderground v.1.15,2013-04-08 20:23:00,
2013-04-08 15:29:00,73.5,56.8,29.88,WSW,238,6.0,13.0,56,0.00,,,0.00,Wunderground v.1.15,2013-04-08 20:29:00,
2013-04-08 15:34:00,73.8,57.1,29.88,West,268,9.0,11.0,56,0.00,,,0.00,Wunderground v.1.15,2013-04-08 20:34:00,
2013-04-08 15:39:00,74.2,57.0,29.88,SSW,204,6.0,14.0,55,0.00,,,0.00,Wunderground v.1.15,2013-04-08 20:39:00,
2013-04-08 15:44:00,74.5,56.8,29.87,SW,235,5.0,11.0,54,0.00,,,0.00,Wunderground v.1.15,2013-04-08 20:44:00,
2013-04-08 15:49:00,74.3,57.1,29.87,WSW,250,8.0,17.0,55,0.00,,,0.00,Wunderground v.1.15,2013-04-08 20:49:00,
2013-04-08 15:54:00,74.2,57.0,29.87,WSW,248,2.0,11.0,55,0.00,,,0.00,Wunderground v.1.15,2013-04-08 20:54:00,
2013-04-08 15:59:00,74.2,57.5,29.87,WSW,243,6.0,11.0,56,0.00,,,0.00,Wunderground v.1.15,2013-04-08 20:59:00,
2013-04-08 16:04:00,74.2,57.5,29.87,WSW,238,7.0,15.0,56,0.00,,,0.00,Wunderground v.1.15,2013-04-08 21:04:00,
2013-04-08 16:09:00,74.1,56.9,29.87,South,172,4.0,8.0,55,0.00,,,0.00,Wunderground v.1.15,2013-04-08 21:09:00,
2013-04-08 16:15:00,74.1,56.9,29.87,West,264,4.0,9.0,55,0.00,,,0.00,Wunderground v.1.15,2013-04-08 21:15:00,
2013-04-08 16:20:00,74.2,57.0,29.87,WSW,248,5.0,5.0,55,0.00,,,0.00,Wunderground v.1.15,2013-04-08 21:20:00,
2013-04-08 16:25:00,74.2,57.5,29.87,WSW,249,1.0,9.0,56,0.00,,,0.00,Wunderground v.1.15,2013-04-08 21:25:00,
2013-04-08 16:30:00,74.2,57.0,29.87,WSW,244,2.0,4.0,55,0.00,,,0.00,Wunderground v.1.15,2013-04-08 21:30:00,
2013-04-08 16:35:00,74.1,56.9,29.87,SW,219,5.0,16.0,55,0.00,,,0.00,Wunderground v.1.15,2013-04-08 21:35:00,
2013-04-08 16:40:00,73.8,57.1,29.87,West,268,7.0,12.0,56,0.00,,,0.00,Wunderground v.1.15,2013-04-08 21:40:00,
2013-04-08 16:45:00,73.8,57.1,29.87,SW,232,6.0,12.0,56,0.00,,,0.00,Wunderground v.1.15,2013-04-08 21:45:00,
2013-04-08 16:50:00,73.8,57.1,29.87,SW,216,6.0,10.0,56,0.00,,,0.00,Wunderground v.1.15,2013-04-08 21:50:00,
2013-04-08 16:55:00,73.8,57.1,29.87,West,278,5.0,11.0,56,0.00,,,0.00,Wunderground v.1.15,2013-04-08 21:55:00,
2013-04-08 17:00:00,73.8,57.1,29.87,WSW,242,3.0,7.0,56,0.00,,,0.00,Wunderground v.1.15,2013-04-08 22:00:00,
2013-04-08 17:05:00,73.8,57.1,29.87,West,276,2.0,9.0,56,0.00,,,0.00,Wunderground v.1.15,2013-04-08 22:05:00,
2013-04-08 17:10:00,73.9,57.2,29.87,WSW,248,2.0,4.0,56,0.00,,,0.00,Wunderground v.1.15,2013-04-08 22:10:00,
2013-04-08 17:15:00,74.0,57.3,29.87,West,278,5.0,6.0,56,0.00,,,0.00,Wunderground v.1.15,2013-04-08 22:15:00,
2013-04-08 17:20:00,74.0,57.3,29.87,West,280,4.0,4.0,56,0.00,,,0.00,Wunderground v.1.15,2013-04-08 22:20:00,
2013-04-08 17:25:00,74.0,57.3,29.87,WNW,287,6.0,11.0,56,0.00,,,0.00,Wunderground v.1.15,2013-04-08 22:25:00,
2013-04-08 17:30:00,74.4,57.2,29.87,WSW,239,5.0,6.0,55,0.00,,,0.00,Wunderground v.1.15,2013-04-08 22:30:00,
2013-04-08 17:35:00,74.9,57.6,29.87,West,281,3.0,6.0,55,0.00,,,0.00,Wunderground v.1.15,2013-04-08 22:35:00,
2013-04-08 17:40:00,74.9,57.1,29.87,SSW,210,4.0,4.0,54,0.00,,,0.00,Wunderground v.1.15,2013-04-08 22:40:00,
2013-04-08 17:45:00,75.0,56.7,29.87,West,270,7.0,7.0,53,0.00,,,0.00,Wunderground v.1.15,2013-04-08 22:45:00,
2013-04-08 17:50:00,74.8,57.0,29.87,WSW,256,3.0,4.0,54,0.00,,,0.00,Wunderground v.1.15,2013-04-08 22:50:00,
2013-04-08 17:55:00,74.5,57.3,29.87,SW,226,6.0,6.0,55,0.00,,,0.00,Wunderground v.1.15,2013-04-08 22:55:00,
2013-04-08 18:00:00,74.3,57.6,29.87,WSW,249,2.0,3.0,56,0.00,,,0.00,Wunderground v.1.15,2013-04-08 23:00:00,
2013-04-08 18:06:00,74.5,57.3,29.87,WSW,238,6.0,9.0,55,0.00,,,0.00,Wunderground v.1.15,2013-04-08 23:06:00,
2013-04-08 18:11:00,74.4,57.2,29.87,WNW,290,2.0,3.0,55,0.00,,,0.00,Wunderground v.1.15,2013-04-08 23:11:00,
2013-04-08 18:17:00,74.3,57.1,29.87,WNW,300,3.0,4.0,55,0.00,,,0.00,Wunderground v.1.15,2013-04-08 23:17:00,
2013-04-08 18:21:00,74.1,56.9,29.87,West,276,4.0,6.0,55,0.00,,,0.00,Wunderground v.1.15,2013-04-08 23:21:00,
2013-04-08 18:27:00,74.1,56.9,29.87,West,277,4.0,8.0,55,0.00,,,0.00,Wunderground v.1.15,2013-04-08 23:27:00,
2013-04-08 18:32:00,74.0,57.3,29.87,WNW,284,1.0,4.0,56,0.00,,,0.00,Wunderground v.1.15,2013-04-08 23:32:00,
2013-04-08 18:37:00,73.8,57.1,29.88,WSW,240,1.0,4.0,56,0.00,,,0.00,Wunderground v.1.15,2013-04-08 23:37:00,
2013-04-08 18:42:00,73.6,56.9,29.87,WSW,246,1.0,2.0,56,0.00,,,0.00,Wunderground v.1.15,2013-04-08 23:42:00,
2013-04-08 18:47:00,73.6,56.9,29.88,WNW,290,2.0,3.0,56,0.00,,,0.00,Wunderground v.1.15,2013-04-08 23:47:00,
2013-04-08 18:52:00,73.5,57.3,29.88,WNW,293,1.0,2.0,57,0.00,,,0.00,Wunderground v.1.15,2013-04-08 23:52:00,
2013-04-08 18:57:00,73.3,57.1,29.88,WSW,256,1.0,2.0,57,0.00,,,0.00,Wunderground v.1.15,2013-04-08 23:57:00,
2013-04-08 19:02:00,73.2,57.1,29.88,WSW,257,0.0,1.0,57,0.00,,,0.00,Wunderground v.1.15,2013-04-09 00:02:00,
2013-04-08 19:07:00,73.0,57.3,29.88,WNW,294,1.0,2.0,58,0.00,,,0.00,Wunderground v.1.15,2013-04-09 00:07:00,
2013-04-08 19:12:00,72.8,57.2,29.88,West,276,0.0,1.0,58,0.00,,,0.00,Wunderground v.1.15,2013-04-09 00:12:00,
2013-04-08 19:17:00,72.7,57.1,29.88,WNW,282,1.0,1.0,58,0.00,,,0.00,Wunderground v.1.15,2013-04-09 00:17:00,
2013-04-08 19:22:00,72.5,57.4,29.88,WNW,284,1.0,1.0,59,0.00,,,0.00,Wunderground v.1.15,2013-04-09 00:22:00,
2013-04-08 19:27:00,72.3,57.2,29.88,WNW,283,0.0,1.0,59,0.00,,,0.00,Wunderground v.1.15,2013-04-09 00:27:00,
2013-04-08 19:32:00,72.0,56.9,29.88,WNW,283,0.0,1.0,59,0.00,,,0.00,Wunderground v.1.15,2013-04-09 00:32:00,
2013-04-08 19:37:00,71.6,57.0,29.88,WNW,283,0.0,1.0,60,0.00,,,0.00,Wunderground v.1.15,2013-04-09 00:37:00,
2013-04-08 19:42:00,71.0,57.3,29.88,WNW,283,0.0,0.0,62,0.00,,,0.00,Wunderground v.1.15,2013-04-09 00:42:00,
2013-04-08 19:47:00,70.4,57.2,29.89,WNW,283,0.0,0.0,63,0.00,,,0.00,Wunderground v.1.15,2013-04-09 00:47:00,
2013-04-08 19:52:00,69.8,57.1,29.89,WNW,283,0.0,0.0,64,0.00,,,0.00,Wunderground v.1.15,2013-04-09 00:52:00,
2013-04-08 19:57:00,69.2,56.9,29.89,WNW,283,0.0,0.0,65,0.00,,,0.00,Wunderground v.1.15,2013-04-09 00:57:00,
2013-04-08 20:02:00,68.8,57.0,29.89,South,190,0.0,1.0,66,0.00,,,0.00,Wunderground v.1.15,2013-04-09 01:02:00,
2013-04-08 20:07:00,68.7,56.9,29.89,South,190,0.0,1.0,66,0.00,,,0.00,Wunderground v.1.15,2013-04-09 01:07:00,
2013-04-08 20:12:00,68.3,56.9,29.89,South,190,0.0,0.0,67,0.00,,,0.00,Wunderground v.1.15,2013-04-09 01:12:00,
2013-04-08 20:17:00,68.1,56.7,29.90,South,188,0.0,0.0,67,0.00,,,0.00,Wunderground v.1.15,2013-04-09 01:17:00,
2013-04-08 20:22:00,67.6,57.1,29.90,South,188,0.0,0.0,69,0.00,,,0.00,Wunderground v.1.15,2013-04-09 01:22:00,
2013-04-08 20:27:00,67.1,56.6,29.90,South,189,0.0,0.0,69,0.00,,,0.00,Wunderground v.1.15,2013-04-09 01:27:00,
2013-04-08 20:32:00,66.7,56.6,29.90,South,188,0.0,0.0,70,0.00,,,0.00,Wunderground v.1.15,2013-04-09 01:32:00,
2013-04-08 20:37:00,66.6,56.9,29.90,South,188,0.0,0.0,71,0.00,,,0.00,Wunderground v.1.15,2013-04-09 01:37:00,
2013-04-08 20:42:00,66.1,56.4,29.90,South,188,0.0,0.0,71,0.00,,,0.00,Wunderground v.1.15,2013-04-09 01:42:00,
2013-04-08 20:48:00,65.6,56.3,29.90,South,188,0.0,0.0,72,0.00,,,0.00,Wunderground v.1.15,2013-04-09 01:48:00,
2013-04-08 20:53:00,65.4,56.1,29.90,South,188,0.0,0.0,72,0.00,,,0.00,Wunderground v.1.15,2013-04-09 01:53:00,
2013-04-08 20:58:00,64.9,56.0,29.90,South,188,0.0,0.0,73,0.00,,,0.00,Wunderground v.1.15,2013-04-09 01:58:00,
2013-04-08 21:03:00,64.4,56.3,29.91,South,188,0.0,0.0,75,0.00,,,0.00,Wunderground v.1.15,2013-04-09 02:03:00,
2013-04-08 21:08:00,64.5,56.4,29.91,South,188,0.0,0.0,75,0.00,,,0.00,Wunderground v.1.15,2013-04-09 02:08:00,
2013-04-08 21:13:00,64.7,56.2,29.91,South,188,0.0,0.0,74,0.00,,,0.00,Wunderground v.1.15,2013-04-09 02:13:00,
2013-04-08 21:18:00,64.1,56.0,29.91,South,188,0.0,0.0,75,0.00,,,0.00,Wunderground v.1.15,2013-04-09 02:18:00,
2013-04-08 21:23:00,63.5,56.2,29.91,South,188,0.0,0.0,77,0.00,,,0.00,Wunderground v.1.15,2013-04-09 02:23:00,
2013-04-08 21:28:00,62.9,55.6,29.91,South,188,0.0,0.0,77,0.00,,,0.00,Wunderground v.1.15,2013-04-09 02:28:00,
2013-04-08 21:33:00,62.8,55.8,29.91,SSE,154,0.0,1.0,78,0.00,,,0.00,Wunderground v.1.15,2013-04-09 02:33:00,
2013-04-08 21:38:00,63.7,56.0,29.91,SE,126,0.0,1.0,76,0.00,,,0.00,Wunderground v.1.15,2013-04-09 02:38:00,
2013-04-08 21:43:00,64.1,55.6,29.92,SE,124,0.0,0.0,74,0.00,,,0.00,Wunderground v.1.15,2013-04-09 02:43:00,
2013-04-08 21:48:00,64.0,55.5,29.92,SE,124,0.0,0.0,74,0.00,,,0.00,Wunderground v.1.15,2013-04-09 02:48:00,
2013-04-08 21:53:00,64.2,55.4,29.92,SW,219,0.0,1.0,73,0.00,,,0.00,Wunderground v.1.15,2013-04-09 02:53:00,
2013-04-08 21:58:00,64.7,55.8,29.92,SW,219,2.0,2.0,73,0.00,,,0.00,Wunderground v.1.15,2013-04-09 02:58:00,
2013-04-08 22:03:00,65.5,55.5,29.92,SSW,203,1.0,2.0,70,0.00,,,0.00,Wunderground v.1.15,2013-04-09 03:03:00,
2013-04-08 22:08:00,66.1,55.6,29.92,SW,217,1.0,4.0,69,0.00,,,0.00,Wunderground v.1.15,2013-04-09 03:08:00,
2013-04-08 22:13:00,66.5,55.2,29.92,SW,221,2.0,3.0,67,0.00,,,0.00,Wunderground v.1.15,2013-04-09 03:13:00,
2013-04-08 22:18:00,66.7,55.4,29.93,SSW,200,1.0,3.0,67,0.00,,,0.00,Wunderground v.1.15,2013-04-09 03:18:00,
2013-04-08 22:23:00,66.9,55.2,29.93,South,170,1.0,4.0,66,0.00,,,0.00,Wunderground v.1.15,2013-04-09 03:23:00,
2013-04-08 22:28:00,67.1,55.4,29.93,SW,221,1.0,4.0,66,0.00,,,0.00,Wunderground v.1.15,2013-04-09 03:28:00,
2013-04-08 22:33:00,67.1,55.4,29.93,SW,222,0.0,3.0,66,0.00,,,0.00,Wunderground v.1.15,2013-04-09 03:33:00,
2013-04-08 22:38:00,67.2,55.5,29.93,South,171,1.0,3.0,66,0.00,,,0.00,Wunderground v.1.15,2013-04-09 03:38:00,
2013-04-08 22:43:00,67.3,55.1,29.93,SW,232,0.0,2.0,65,0.00,,,0.00,Wunderground v.1.15,2013-04-09 03:43:00,
2013-04-08 22:48:00,67.2,55.0,29.93,SSE,166,2.0,2.0,65,0.00,,,0.00,Wunderground v.1.15,2013-04-09 03:48:00,
2013-04-08 22:53:00,67.3,55.5,29.93,SSE,166,0.0,2.0,66,0.00,,,0.00,Wunderground v.1.15,2013-04-09 03:53:00,
2013-04-08 22:58:00,67.2,55.5,29.93,SSW,208,1.0,2.0,66,0.00,,,0.00,Wunderground v.1.15,2013-04-09 03:58:00,
2013-04-08 23:00:00,67.2,55.5,29.93,SSE,162,1.0,1.0,66,0.00,,,0.00,Wunderground v.1.15,2013-04-09 04:00:00,
2013-04-08 23:05:00,67.1,55.4,29.93,SW,221,3.0,3.0,66,0.00,,,0.00,Wunderground v.1.15,2013-04-09 04:05:00,
2013-04-08 23:10:00,67.1,55.4,29.93,SSW,200,0.0,2.0,66,0.00,,,0.00,Wunderground v.1.15,2013-04-09 04:10:00,
2013-04-08 23:15:00,67.0,55.3,29.93,SW,225,1.0,2.0,66,0.00,,,0.00,Wunderground v.1.15,2013-04-09 04:15:00,
2013-04-08 23:20:00,66.9,55.2,29.93,SW,229,0.0,1.0,66,0.00,,,0.00,Wunderground v.1.15,2013-04-09 04:20:00,
2013-04-08 23:25:00,66.7,55.4,29.93,SSE,152,0.0,2.0,67,0.00,,,0.00,Wunderground v.1.15,2013-04-09 04:25:00,
2013-04-08 23:30:00,66.6,55.3,29.93,SSE,155,0.0,0.0,67,0.00,,,0.00,Wunderground v.1.15,2013-04-09 04:30:00,
2013-04-08 23:36:00,66.4,55.5,29.93,SSE,150,0.0,1.0,68,0.00,,,0.00,Wunderground v.1.15,2013-04-09 04:36:00,
2013-04-08 23:41:00,66.2,55.3,29.93,SE,142,1.0,1.0,68,0.00,,,0.00,Wunderground v.1.15,2013-04-09 04:41:00,
2013-04-08 23:46:00,66.2,55.3,29.93,SSW,200,0.0,2.0,68,0.00,,,0.00,Wunderground v.1.15,2013-04-09 04:46:00,
2013-04-08 23:51:00,66.3,55.4,29.92,SSE,156,0.0,2.0,68,0.00,,,0.00,Wunderground v.1.15,2013-04-09 04:51:00,
2013-04-08 23:56:00,66.1,55.2,29.92,SSE,155,0.0,2.0,68,0.00,,,0.00,Wunderground v.1.15,2013-04-09 04:56:00,